sat.trackr.live / text

‹ back to catalog

STARLINK-36609

NORAD 67582 · 2026-016X

PAYLOAD ACTIVE UNKNOWN

§ Identity

Operator
Country
US
Launch date
2026-01-25
Launch site
AFWTR
Launch vehicle
Mass (kg)
RCS (m²)

Purposes: comms

External: N2YO · Heavens-Above · Gunter

§ Orbital elements

Epoch: 2026-09-19T21:07:59.418912Z

Period
93.91 min
Inclination
97.2865°
Eccentricity
0.0000347
Mean motion
15.33454823 rev/d
Perigee alt
465.3 km
Apogee alt
465.8 km
Semi-major
6,843.7 km
B*
3.5183e-4
RAAN
321.5234°
Arg perigee
221.3215°
Mean anomaly
138.8001°
Rev number
3,662

§ Raw data

STARLINK-366091 67582U 26016X   26262.88054883  .00011304  00000+0  35183-3 0  99962 67582  97.2865 321.5234 0000347 221.3215 138.8001 15.33454823 36623

JSON: /api/v1/satellites/67582 · /tle

For live sub-satellite position, see the globe view (requires WebGL).

§ Visibility from observer

Set your observer location to see the next 7 days of passes ≥ 10°. The values pass through the URL so the page stays shareable.

No JS? Fill the form by hand. The geolocation button needs JavaScript.